#timestamp,LO_Frequency,Hit,StdDev 
1455627615.4,286046990.2,N
1455627635.2,286046990.2,N
1455627655.1,286046991.0,N
1455627656.0,286046991.0,N
1455627675.8,286046988.2,Y
1455627695.7,286046992.1,P
1455627715.5,286046996.0,P
1455627735.3,286046998.0,N
1455627755.1,286046998.6,N
1455627775.9,286046999.8,N
1455627795.7,286046996.8,N
1455627815.5,286046996.7,N
1455627835.4,286046995.1,N
1455627855.2,286046994.9,N
1455627875.0,286046995.6,N
1455627875.9,286046995.6,N
1455627895.8,286046994.0,N
1455627915.6,286046990.7,Y
1455627935.4,286046995.6,P
1455627955.3,286046998.0,P
1455627975.1,286046994.7,P
1455627995.8,286046991.7,Y
1455628015.7,286046997.8,P
1455628035.5,286046993.8,P
1455628055.3,286046996.4,N
1455628075.2,286046995.6,Y
1455628095.0,286046998.4,P
1455628095.9,286046998.4,N
1455628115.7,286046998.6,N
1455628135.6,286046997.0,N
1455628155.4,286046998.0,N
1455628175.2,286046995.2,Y
1455628195.1,286047001.2,P
1455628196.0,286047001.2,N
1455628215.8,286046998.9,N
1455628235.6,286047000.0,N
1455628255.5,286047004.4,Y
1455628275.3,286047005.5,P
1455628295.1,286047006.4,N
1455628315.9,286047010.2,P
1455628335.7,286047011.2,Y
1455628355.5,286047004.8,P
1455628375.4,286047005.1,P
1455628395.2,286047005.3,P
1455628415.0,286047007.8,Y
1455628415.9,286047007.8,P
1455628435.8,286047005.0,P
1455628455.6,286047006.6,P
1455628475.4,286047008.6,Y
1455628495.3,286047001.7,P
1455628515.1,286047002.1,N
1455628535.8,286047007.0,P
1455628555.7,286047007.5,Y
1455628575.5,286047001.6,P
1455628595.3,286047007.4,P
1455628615.2,286047007.9,P
1455628635.0,286047010.0,Y
1455628635.9,286047010.0,P
1455628655.8,286047005.7,N
1455628675.6,286047007.5,P
1455628695.4,286047005.2,N
1455628715.3,286047009.1,Y
1455628735.1,286046998.2,P
1455628736.0,286046998.2,N
1455628755.8,286047000.1,N
1455628775.7,286047002.7,N
1455628795.5,286047000.2,N
1455628815.3,286047002.6,N
1455628835.1,286047003.5,N
1455628855.9,286047007.5,N
1455628875.7,286047010.5,Y
1455628895.5,286047005.9,P
1455628915.4,286047006.2,P
1455628935.2,286047006.8,P
1455628955.0,286047005.8,Y
1455628956.0,286047005.8,P
1455628975.8,286047002.1,P
1455628995.6,286047004.0,N
1455629015.5,286047005.7,Y
1455629035.3,286047002.2,P
1455629055.1,286047001.9,N
1455629075.8,286047000.4,N
1455629095.7,286047003.9,N
1455629115.5,286047001.6,N
1455629135.3,286046999.7,N
1455629155.2,286047004.2,N
1455629175.9,286047000.4,N
1455629195.7,286046998.5,N
1455629215.6,286046998.6,N
1455629235.4,286047000.5,N
1455629255.2,286046998.5,N
1455629275.1,286047002.1,N
1455629276.0,286047002.1,N
1455629295.8,286047001.6,N
1455629315.6,286047001.6,N
1455629335.5,286046999.8,N
1455629355.3,286047000.7,N
1455629375.1,286046999.0,N
1455629395.8,286047001.0,N
1455629415.7,286047002.7,N
1455629435.5,286047001.6,N
1455629455.3,286047003.3,N
1455629475.2,286047005.8,Y
1455629495.0,286047004.5,P
1455629495.9,286047004.5,N
1455629515.7,286047005.7,P
1455629535.6,286047008.1,Y
1455629555.4,286047004.3,P
1455629575.3,286047001.7,P
1455629595.1,286047002.4,N
1455629596.0,286047002.4,N
1455629615.8,286046999.9,N
1455629635.6,286047000.8,N
1455629655.5,286047001.6,N
1455629675.3,286047003.4,N
1455629695.1,286047001.9,N
1455629715.9,286047003.1,N
1455629735.7,286047001.3,N
1455629755.5,286047001.3,N
1455629775.4,286047004.3,Y
1455629795.2,286047000.1,P
1455629815.0,286047002.5,N
1455629815.9,286047002.5,N
1455629835.8,286047000.7,N
1455629855.6,286046997.3,N
1455629875.4,286046994.5,Y
1455629895.3,286046995.9,P
1455629915.1,286046994.0,N
1455629935.8,286046994.7,N
1455629955.7,286046993.9,N
1455629975.5,286046992.7,N
1455629995.3,286046993.5,N
1455630015.2,286046992.9,N
1455630035.9,286046988.6,Y
1455630055.7,286046998.3,P
1455630075.6,286046997.9,N
1455630095.4,286046997.5,N
1455630115.2,286046993.6,Y
1455630135.1,286046997.2,P
1455630136.0,286046997.2,P
1455630155.8,286046999.2,P
1455630175.6,286046996.7,Y
1455630195.5,286046998.1,P
1455630215.3,286046996.6,P
1455630235.1,286046997.0,P
1455630255.9,286046997.8,Y
1455630275.7,286046996.8,P
1455630295.5,286046999.2,P
1455630315.4,286046999.2,N
1455630335.2,286046996.0,Y
1455630355.0,286047000.7,P
1455630355.9,286047000.7,N
1455630375.8,286046998.6,N
1455630395.6,286046998.1,N
1455630415.4,286046998.4,N
1455630435.3,286046997.0,N
1455630455.1,286046997.9,N
1455630456.0,286046997.9,N
1455630475.8,286047000.5,N
1455630495.7,286047001.1,N
1455630515.5,286047000.5,N
1455630535.3,286046998.6,N
1455630555.1,286047000.5,N
1455630575.9,286046997.2,N
1455630595.7,286046998.7,N
1455630615.5,286046999.3,N
1455630635.4,286046995.1,Y
1455630655.2,286046999.5,P
1455630675.0,286046996.1,P
1455630675.9,286046996.1,N
1455630695.8,286046995.4,N
1455630715.6,286046997.9,N
1455630735.4,286046995.5,N
1455630755.3,286046995.4,N
1455630775.1,286046991.7,Y
1455630795.8,286046995.9,P
1455630815.7,286046992.7,P
1455630835.5,286046993.1,P
1455630855.3,286046992.9,Y
1455630875.2,286046998.9,P
1455630895.0,286046999.0,N
1455630895.9,286046999.0,N
1455630915.7,286046997.2,N
1455630935.6,286046997.2,N
1455630955.4,286046997.7,N
1455630975.2,286046993.9,Y
1455630995.1,286046995.1,P
1455630996.0,286046995.1,P
1455631015.8,286046996.1,P
1455631035.6,286046996.4,Y
1455631055.5,286046998.8,P
1455631075.3,286046998.1,N
1455631095.1,286047000.3,N
1455631115.9,286047001.4,N
1455631135.7,286047004.2,N
1455631155.5,286047001.8,N
1455631175.4,286047004.3,N
1455631195.2,286047002.8,N
1455627615.3,286047004.3,N
1455627635.1,286047004.2,N
1455627655.9,286047000.9,N
1455627675.7,286047000.4,N
1455627695.5,286047002.3,N
1455627715.4,286046996.8,N
1455627735.2,286046997.9,N
1455627755.0,286046994.9,N
1455627755.9,286046994.9,N
1455627775.8,286046996.7,N
1455627795.6,286046997.0,N
1455627815.4,286046999.3,N
1455627835.3,286046998.9,N
1455627855.1,286047000.7,N
1455627856.0,286047000.7,N
1455627875.8,286047004.1,N
1455627895.7,286047003.0,N
1455627915.5,286047005.3,N
1455627935.3,286047005.3,N
1455627955.1,286047003.5,N
1455627975.9,286047002.9,N
1455627995.7,286046999.9,N
1455628015.5,286046999.7,N
1455628035.4,286047003.5,N
1455628055.2,286047003.0,N
1455628075.0,286047004.3,N
1455628075.9,286047004.3,N
1455628095.8,286046999.0,N
1455628115.6,286047000.0,N
1455628135.4,286047000.2,N
1455628155.3,286046999.3,N
1455628175.1,286046998.6,N
1455628176.0,286046998.6,N
1455628195.8,286046999.0,N
1455628215.7,286046998.3,N
1455628235.5,286046998.9,N
1455628255.3,286047000.8,N
1455628275.2,286047001.0,N
1455628295.9,286047000.9,N
1455628315.7,286047000.5,N
1455628335.5,286046999.1,N
1455628355.4,286046999.1,N
1455628375.2,286046995.2,N
1455628395.0,286046995.5,N
1455628395.9,286046995.5,N
1455628415.8,286046996.2,N
1455628435.6,286046995.1,N
1455628455.4,286046994.1,N
1455628475.3,286046995.7,N
1455628495.1,286046998.8,N
1455628515.8,286046993.4,N
1455628535.7,286046997.7,N
1455628555.5,286046994.0,N
1455628575.3,286046991.8,N
1455628595.2,286046991.9,N
1455628615.9,286046994.0,N
1455628635.7,286046992.0,N
1455628655.6,286046994.1,N
1455628675.4,286046996.1,N
1455628695.2,286046993.2,N
1455628715.1,286046988.6,Y
1455628716.0,286046988.6,P
1455628735.8,286046995.4,N
1455628755.6,286046995.5,N
1455628775.5,286046997.7,N
1455628795.3,286046997.5,N
1455628815.1,286046995.5,N
1455628835.8,286046994.3,N
1455628855.7,286046996.2,N
1455628875.5,286046994.9,N
1455628895.3,286046995.4,N
1455628915.2,286047001.2,N
1455628935.9,286046998.7,N
1455628955.7,286047000.3,N
1455628975.6,286046999.8,N
1455628995.4,286047003.6,N
1455629015.2,286047006.8,N
1455629035.1,286047008.7,N
1455629036.0,286047008.7,N
1455629055.8,286047008.8,N
1455629075.6,286047008.8,N
1455629095.5,286047006.2,N
1455629115.3,286047005.1,N
1455629135.1,286047006.8,N
1455629155.8,286047005.2,N
1455629175.7,286047007.2,N
1455629195.5,286047003.9,N
1455629215.3,286047003.5,N
1455629235.2,286047004.4,N
1455629255.9,286047002.7,N
1455629275.7,286047000.8,N
1455629295.6,286046998.3,N
1455629315.4,286046996.6,N
1455629335.2,286046995.1,N
1455629355.1,286046993.6,N
1455629356.0,286046993.6,N
1455629375.8,286046991.7,N
1455629395.6,286046988.6,N
1455629415.5,286046989.2,N
1455629435.3,286046989.7,N
1455629455.1,286046989.6,N
1455629475.9,286046985.5,N
1455629495.7,286046986.3,N
1455629515.5,286046984.7,N
1455629535.3,286046982.2,N
1455629555.2,286046983.8,N
1455629575.0,286046982.4,N
1455629575.9,286046982.4,N
1455629595.7,286046979.3,N
1455629615.6,286046981.5,N
1455629635.4,286046977.5,N
1455629655.2,286046976.9,N
1455629675.1,286046974.2,N
1455629676.0,286046974.2,N
1455629695.8,286046978.4,N
1455629715.6,286046977.4,N
1455629735.5,286046980.0,N
1455629755.3,286046980.3,N
1455629775.1,286046979.0,N
1455629795.9,286046978.2,N
1455629815.7,286046979.8,N
1455629835.5,286046978.1,Y
1455629855.4,286046994.9,P
1455629875.2,286046997.9,N
1455629895.0,286046996.5,N
1455629895.9,286046996.5,N
1455629915.8,286046998.3,N
1455629935.6,286046997.5,N
1455629955.4,286046997.2,N
1455629975.2,286046997.5,N
1455629995.1,286046999.3,N
1455629996.0,286046999.3,N
1455630015.8,286047000.0,N
1455630035.6,286047000.2,N
1455630055.5,286047002.6,N
1455630075.3,286047003.6,N
1455630095.1,286047005.5,N
1455630115.9,286047007.5,N
1455630135.7,286047007.4,N
1455630155.5,286047006.1,N
1455630175.4,286047009.4,N
1455630195.2,286047015.0,N
1455630215.0,286047015.8,N
1455630215.9,286047015.8,N
1455630235.8,286047024.8,Y
1455630255.6,286047023.4,P
1455630275.4,286047026.1,N
1455630295.3,286047029.8,N
1455630315.1,286047031.1,N
1455630316.0,286047031.1,N
1455630335.8,286047031.0,Y
1455630355.7,286047006.1,P
1455630375.5,286047005.3,N
1455630395.3,286047005.6,N
1455630415.2,286047006.0,N
1455630435.9,286047007.2,N
1455630455.7,286047004.8,N
1455630475.5,286047005.8,N
1455630495.4,286047003.0,N
1455630515.2,286047008.9,N
1455630535.0,286047008.9,N
1455630535.9,286047008.9,N
1455630555.8,286047008.7,N
1455630575.6,286047006.6,N
1455630595.4,286047008.5,N
1455630615.3,286047013.9,Y
1455630635.1,286047001.4,P
1455630655.8,286046999.7,N
1455630675.7,286046998.1,N
1455630695.5,286047000.2,N
1455630715.3,286047000.0,N
1455630735.2,286047000.3,N
1455630755.9,286046998.5,N
1455630775.7,286046999.5,N
1455630795.6,286046998.6,N
1455630815.4,286046998.3,N
1455630835.2,286046998.7,N
1455630855.0,286047002.0,N
1455630856.0,286047002.0,N
1455630875.8,286047005.8,N
1455630895.6,286047001.8,N
1455630915.4,286047002.4,N
1455630935.3,286047000.5,N
1455630955.1,286047000.2,N
1455630975.8,286047004.4,N
1455630995.7,286047003.4,N
1455631015.5,286047004.0,N
1455631035.3,286047003.1,N
1455631055.2,286047004.9,N
1455631075.9,286047004.9,N
1455631095.7,286047005.2,N
1455631115.6,286047004.9,N
1455631135.4,286047007.1,N
1455631155.2,286047007.3,N
1455631175.1,286047008.8,Y
1455631176.0,286047008.8,P
1455631195.8,286047003.2,N
